Voltar ao catálogo

MIDAS 5

STRONGBACK

AtivoMilitarPO
NORAD 271·PAYLOAD·🇺🇸 United States

Lançado Apr 9, 1962 de Vandenberg Space Force Base

Loading…

Próximas Passagens (próximas 24 horas)

TLE

AtualizadoSource: Space-Track

Época: Sep 14, 2026, 14:03 UTC

1 00271U 62010A   26257.58589135  .00000006  00000-0  59560-3 0  9999
2 00271  86.6568 302.8781 0326877 279.8551  76.5601  9.41308809214082

Acompanhe MIDAS 5 em tempo real com AllMySat

Download on the App Store